Vertical_Velocity
8 11 1 3 5 8 11 -1 -4 -0 -1 1 2 4 7 5 1 1 -1 -0 1 -2 1 0 -2 -2 -1 -1 -1 -0 -1 -1 -1 -1 0 1 -0 1 0 -0 -1 -0 -0
3 8 5 3 4 11 5 -6 1 -2 1 2 1 -0 0 -0 -2 0 -1 -4 -0 0 -0 -0 -1 -1 -0 0 1 -0 -1 -1 -1 -1 -0 -1 -0 0 -0 -0 -1 -0 -1
-6 8 6 1 7 5 3 9 -2 1 2 -0 -3 -1 -6 -8 -4 5 1 1 0 -0 -1 -0 -2 -1 -1 -1 -0 0 -0 0 -2 -0 0 -0 -1 1 -1 -1 -1 -1 0
-3 13 5 4 5 5 6 4 -0 1 2 3 6 -0 6 8 8 -1 -3 -1 -1 -0 -5 -2 0 -1 -2 -2 -1 -1 -0 -2 0 -0 -1 1 0 0 -3 -0 0 -0 0
0 4 8 5 -1 3 3 4 6 5 2 10 1 4 6 0 -6 -2 -3 -0 -1 1 -2 -1 -1 -1 0 -1 -1 -0 -0 -2 -2 1 -0 0 0 0 -1 -0 1 -0 -0
2 0 5 3 2 5 6 5 2 5 4 5 1 6 7 -1 -1 -2 3 2 -3 -1 1 1 1 -1 -0 -2 -1 -1 -0 -1 2 1 2 0 -0 2 -1 1 1 -0 -0
-1 3 5 2 2 3 5 1 -10 -21 -5 2 -1 -1 5 6 -0 -0 -1 1 1 3 3 1 2 2 1 0 1 -0 -2 -2 1 -1 -2 2 1 2 -1 -0 4 -1 -1
1 2 0 4 2 -0 2 -47 -23 42 -13 -11 -23 -9 -7 -1 -4 -1 -1 0 -0 0 -3 -2 -1 -0 -0 2 2 2 -3 0 -0 -0 -0 1 1 0 0 0 1 0 -2
0 1 1 3 3 5 -1 -20 -14 5 -4 -4 43 7 21 -9 1 2 1 1 -4 1 2 0 0 -0 -0 2 2 -0 -0 -0 -0 -2 -1 1 2 1 1 -0 1 -0 0
-1 -0 2 2 3 0 -1 2 -1 -4 14 -0 -1 32 34 -0 3 -1 -0 -0 1 -2 -0 -0 -0 0 -6 -0 2 -0 -0 1 -0 1 0 1 1 3 2 1 1 1 0
0 -1 0 1 0 0 -3 -11 -0 7 -4 -4 -1 -1 -22 -10 -2 -4 0 -7 -3 -4 0 -1 -1 2 -0 -1 0 0 -2 -0 -1 0 0 -1 2 1 1 1 1 -1 -0
5 1 5 -9 1 -6 9 -0 0 4 -39 45 -1 -5 -5 6 3 -8 48 -7 0 1 -1 1 0 1 0 1 -1 -1 1 -1 -1 -1 0 -1 1 1 0 0 -1 1 1
4 -0 1 3 -1 -1 -7 -3 1 0 4 -26 39 20 2 -10 3 -11 -7 2 6 1 0 -3 0 1 2 -1 1 -1 -1 -1 -0 -0 -0 -2 1 0 -1 -2 -1 1 0
2 2 2 1 0 -5 25 -1 -2 -6 -1 7 -1 -11 61 5 -8 33 28 10 12 2 -0 -5 -3 25 -1 -2 -1 -1 0 2 1 -0 -1 -2 0 -1 -1 -0 -1 -0 -1
-2 3 1 -0 2 3 1 1 3 -2 2 1 6 -4 16 -7 4 21 34 9 1 -2 2 0 -2 1 -5 0 2 2 3 2 1 1 1 2 1 -0 1 1 -3 -1 -1
13 -0 2 2 3 -2 2 3 4 -0 4 -13 -3 2 11 15 0 -7 -17 22 8 -12 -14 22 2 4 5 1 -0 1 1 -1 0 1 -1 -0 1 1 -1 -0 -1 -1 -0
13 -1 2 3 2 4 3 0 2 4 5 7 5 -0 2 9 -3 38 12 9 9 -3 -5 -2 -2 5 4 8 4 -4 1 1 1 -3 -1 -1 -1 -2 -1 -1 -1 1 -1
-1 -1 -0 -0 4 5 -1 -1 1 4 5 -2 3 9 3 -3 2 3 32 4 21 -7 -5 -1 -9 -4 4 3 3 0 0 4 4 0 -3 -0 -1 -1 -1 -4 -0 3 1
-1 6 9 -0 0 5 1 4 1 3 3 1 4 1 8 20 11 19 49 41 27 13 28 19 11 1 -3 -0 1 -1 3 2 2 1 -4 -6 -1 0 -4 -1 0 2 3
2 -2 -2 -2 1 3 5 2 4 -2 -1 -2 2 0 7 -1 5 17 3 -1 -0 -0 10 -1 -3 -3 -0 0 -0 6 0 2 3 4 4 -5 4 1 -1 -0 -2 0 4
1 1 2 4 0 2 2 2 4 4 7 2 2 1 2 12 1 25 -3 -8 3 5 -1 14 6 3 3 0 3 -0 2 -3 3 4 -3 0 1 2 -2 -1 -5 -0 -2
-1 -1 3 5 1 1 3 2 5 4 3 4 2 1 1 7 11 10 33 11 4 20 6 5 1 4 5 -2 1 6 2 0 -2 1 2 2 2 2 -2 -2 -1 -1 -1
-2 -2 2 3 5 -2 -1 1 -0 1 9 5 8 7 3 5 6 1 -0 -5 4 4 -0 3 11 3 3 0 4 -1 -2 2 -1 0 3 1 -0 0 -2 -2 -2 -2 -2
4 0 -4 -1 3 1 -0 -1 1 -1 0 -0 3 1 2 11 7 12 7 10 14 9 -3 12 5 -1 -3 4 0 5 3 -2 -2 -1 2 3 -0 -2 1 -1 -4 -2 -2
-3 -3 -4 -4 -2 1 1 -1 -2 0 0 -3 0 3 2 7 5 6 7 8 7 3 5 6 14 14 2 -5 20 9 1 -0 -4 1 2 0 -1 -2 0 -0 0 -2 0
-0 -2 -3 -4 -5 -4 -0 1 1 2 1 1 0 -3 -1 2 4 2 2 -3 -2 4 3 2 3 4 3 8 8 4 -0 1 -4 2 3 -3 -6 -0 1 -0 -2 -4 -4
Height
5701 5710 5720 5729 5739 5746 5753 5761 5768 5776 5783 5789 5796 5802 5809 5815 5820 5826 5831 5836 5841 5845 5850 5855 5859 5863 5867 5870 5874 5877 5880 5882 5885 5887 5889 5891 5893 5894 5895 5896 5896 5897 5897
5687 5698 5709 5718 5728 5736 5744 5752 5761 5769 5777 5783 5789 5795 5801 5807 5813 5818 5824 5830 5835 5839 5843 5848 5853 5857 5861 5865 5868 5871 5875 5877 5880 5883 5885 5888 5890 5891 5892 5893 5893 5894 5895
5675 5686 5695 5704 5716 5725 5733 5742 5752 5762 5769 5774 5780 5785 5791 5798 5804 5811 5816 5822 5828 5833 5837 5842 5846 5851 5855 5859 5862 5866 5870 5873 5875 5878 5881 5883 5886 5887 5888 5889 5890 5891 5892
5663 5675 5685 5694 5704 5714 5724 5732 5743 5751 5759 5764 5772 5778 5787 5795 5801 5806 5811 5815 5821 5826 5830 5835 5840 5844 5848 5853 5857 5860 5864 5868 5870 5873 5876 5879 5881 5881 5884 5886 5886 5888 5889
5650 5663 5674 5684 5694 5704 5714 5725 5732 5740 5749 5756 5764 5771 5779 5785 5792 5798 5803 5808 5813 5818 5822 5827 5831 5836 5840 5845 5849 5854 5857 5861 5864 5867 5870 5873 5875 5876 5879 5881 5882 5884 5885
5636 5650 5661 5674 5683 5695 5705 5715 5723 5728 5738 5747 5753 5762 5770 5778 5785 5790 5797 5802 5807 5811 5816 5819 5824 5828 5833 5837 5841 5846 5850 5853 5857 5860 5863 5866 5869 5871 5874 5877 5878 5879 5881
5623 5637 5649 5661 5673 5684 5695 5704 5715 5711 5726 5736 5744 5753 5763 5769 5776 5783 5789 5794 5800 5805 5810 5813 5817 5820 5824 5829 5834 5838 5842 5845 5849 5852 5856 5860 5863 5865 5868 5871 5873 5874 5876
5611 5625 5636 5648 5662 5673 5684 5696 5705 5700 5719 5730 5736 5744 5753 5760 5767 5774 5781 5786 5792 5796 5801 5805 5808 5812 5816 5821 5826 5830 5833 5837 5842 5845 5849 5853 5856 5858 5862 5865 5867 5868 5869
5600 5614 5625 5637 5650 5661 5672 5685 5693 5694 5709 5719 5730 5732 5739 5750 5758 5764 5771 5777 5782 5787 5792 5796 5800 5804 5808 5813 5817 5821 5825 5829 5833 5837 5841 5845 5848 5852 5856 5859 5861 5863 5864
5589 5603 5615 5625 5637 5649 5661 5672 5682 5691 5698 5710 5719 5718 5727 5740 5747 5752 5760 5767 5774 5779 5784 5789 5793 5797 5801 5805 5809 5813 5817 5822 5826 5830 5834 5838 5841 5846 5849 5852 5855 5857 5857
5579 5592 5604 5615 5626 5638 5649 5660 5671 5682 5689 5699 5706 5716 5726 5728 5736 5742 5746 5754 5763 5770 5776 5781 5785 5790 5794 5798 5803 5807 5811 5816 5819 5824 5828 5831 5835 5838 5842 5845 5848 5850 5851
5567 5580 5593 5602 5615 5628 5637 5648 5658 5668 5678 5676 5697 5706 5713 5715 5727 5735 5724 5742 5750 5759 5766 5772 5777 5782 5786 5791 5795 5800 5805 5809 5813 5816 5821 5824 5828 5832 5835 5838 5840 5843 5844
5555 5568 5582 5593 5604 5615 5628 5637 5647 5657 5667 5675 5678 5690 5699 5710 5711 5718 5729 5730 5737 5746 5754 5762 5767 5773 5778 5783 5787 5792 5797 5801 5806 5809 5813 5817 5821 5825 5828 5830 5833 5835 5837
5543 5556 5569 5581 5592 5605 5609 5623 5635 5645 5655 5667 5675 5684 5687 5698 5706 5707 5711 5722 5727 5737 5743 5750 5757 5764 5769 5774 5778 5783 5788 5793 5797 5801 5805 5809 5813 5817 5820 5823 5824 5827 5829
5532 5543 5556 5567 5580 5592 5603 5614 5623 5634 5644 5655 5661 5670 5683 5685 5697 5700 5703 5711 5719 5727 5732 5739 5745 5751 5756 5763 5769 5774 5779 5784 5788 5792 5796 5800 5804 5806 5810 5813 5815 5818 5820
5521 5532 5544 5555 5566 5577 5589 5601 5609 5619 5630 5642 5648 5659 5666 5677 5684 5693 5695 5700 5708 5715 5722 5718 5733 5739 5745 5752 5757 5763 5768 5774 5778 5782 5786 5790 5794 5797 5799 5802 5806 5808 5810
5509 5520 5531 5542 5553 5565 5575 5587 5598 5607 5618 5626 5635 5644 5652 5662 5673 5677 5683 5688 5698 5705 5711 5714 5721 5727 5734 5740 5746 5751 5757 5762 5767 5771 5775 5780 5783 5787 5790 5793 5795 5798 5800
5498 5508 5518 5529 5540 5551 5561 5573 5584 5594 5603 5614 5623 5633 5642 5649 5657 5665 5675 5679 5683 5686 5693 5700 5707 5713 5719 5725 5732 5737 5743 5750 5755 5759 5762 5768 5772 5775 5778 5781 5784 5787 5790
5488 5496 5506 5516 5527 5537 5547 5558 5570 5579 5590 5599 5609 5617 5627 5634 5639 5646 5654 5660 5664 5674 5680 5684 5689 5697 5705 5711 5717 5723 5730 5736 5741 5745 5750 5754 5758 5762 5765 5768 5772 5775 5778
5477 5485 5494 5503 5513 5522 5532 5544 5555 5564 5574 5584 5592 5602 5611 5618 5624 5629 5637 5647 5655 5660 5666 5670 5678 5685 5690 5695 5701 5708 5713 5718 5724 5730 5734 5739 5744 5748 5752 5755 5758 5761 5764
5465 5473 5481 5489 5499 5508 5518 5528 5538 5548 5557 5567 5576 5585 5595 5602 5610 5616 5622 5631 5640 5645 5652 5657 5661 5666 5674 5680 5685 5690 5697 5703 5710 5715 5719 5724 5729 5732 5735 5739 5742 5746 5747
5453 5460 5467 5476 5484 5492 5502 5511 5522 5531 5541 5551 5561 5569 5577 5585 5592 5601 5607 5614 5622 5625 5631 5638 5645 5651 5657 5663 5669 5675 5680 5686 5692 5697 5703 5708 5712 5716 5719 5722 5725 5728 5731
5441 5447 5455 5463 5471 5479 5486 5495 5504 5514 5524 5533 5542 5551 5559 5568 5574 5584 5590 5598 5604 5609 5614 5622 5629 5634 5640 5646 5651 5656 5663 5668 5674 5680 5685 5689 5693 5697 5701 5705 5708 5711 5714
5428 5435 5443 5449 5457 5465 5473 5479 5488 5498 5507 5514 5523 5532 5541 5549 5555 5564 5573 5579 5585 5591 5597 5603 5610 5616 5623 5631 5637 5642 5646 5651 5656 5662 5667 5671 5675 5679 5684 5687 5690 5693 5697
5416 5423 5429 5435 5442 5450 5458 5465 5472 5480 5488 5497 5505 5513 5520 5527 5534 5543 5552 5559 5564 5571 5577 5584 5591 5597 5603 5611 5620 5624 5628 5632 5639 5644 5647 5651 5656 5661 5666 5670 5673 5676 5679
5403 5410 5415 5421 5427 5433 5441 5449 5457 5464 5471 5478 5486 5493 5500 5506 5513 5523 5530 5538 5546 5552 5558 5565 5571 5577 5584 5591 5597 5604 5610 5614 5620 5625 5628 5632 5637 5642 5647 5651 5655 5657 5660